Location: ???????
(56.2167°N, 38.0500°E)
Time: 04:26:34
(UTC+00:00)

NOSS 2-1 (D) - Pass Details

Date: 19 May 2025
Orbit: 378 x 1697 km, 63.3° (Epoch: 19 June)

Event Time Altitude Azimuth Distance (km) Brightness Sun altitude
Exits shadow 22:35:42 - 262° (W) 2,207 6.2 -12.3°
Reaches altitude 10° 22:37:36 10° 272° (W) 1,427 5.3 -12.2°
Maximum altitude 22:40:22 32° 339° (NNW) 683 4.3 -12.1°
Drops below altitude 10° 22:43:10 10° 46° (NE) 1,435 6.5 -12.0°
Sets 22:45:24 0° 56° (ENE) 2,364 7.5 -11.9°
